Weather History for Kirksville, MO

Change the Weather History Date:

Tuesday, September 3, 2013

  Actual Average Record
Temperature  
Mean Temperature 66 °F 69 °F  
Max Temperature 86 °F 81 °F 100 °F (1939)
Min Temperature 46 °F 58 °F 39 °F (1952)
Degree Days  
Heating Degree Days 0 1  
Month to date heating degree days 0 3  
Since 1 July heating degree days 13 10  
Cooling Degree Days 1 5  
Month to date cooling degree days 19 17  
Year to date cooling degree days 829 861  
Growing Degree Days 16 (Base 50)    
Moisture  
Dew Point 49 °F    
Average Humidity 63    
Maximum Humidity 100    
Minimum Humidity 25    
Precipitation  
Precipitation 0.00 in 0.14 in 1.53 in (1926)
Month to date precipitation T 0.45  
Year to date precipitation 29.89 27.86  
Sea Level Pressure  
Sea Level Pressure 30.08 in    
Wind  
Wind Speed 3 mph (NNE)    
Max Wind Speed 10 mph    
Max Gust Speed 13 mph    
Visibility 7 miles    
Events Fog    
T = Trace of Precipitation, MM = Missing Value Source: NWS Daily Summary

Daily Weather History Graph

Daily Weather History Graph

Search for Another Location

Airport:

Trip Planner

Search our weather history database for the weather conditions in past years. The results will help you decide how hot, cold, wet, or windy it might be!

Date:

Astronomy

Sep. 03, 2013 Rise Set
Actual Time 6:40 AM CDT 7:38 PM CDT
Civil Twilight 6:12 AM CDT 8:05 PM CDT
Nautical Twilight 5:39 AM CDT 8:38 PM CDT
Astronomical Twilight 5:05 AM CDT 9:12 PM CDT
Moon 4:54 AM CDT (9/3) 6:25 PM CDT (9/3)
Length of Visible Light 13h 53m
Length of Day
12h 58m
Waning Crescent, 3% of the Moon is Illuminated
Sep 3
Waning Crescent
Sep 5
New
Sep 12
First Quarter
Sep 19
Full
Sep 26
Last Quarter

Hourly Weather History & Observations

Time (CDT) Temp. Dew Point Humidity Pressure Visibility Wind Dir Wind Speed Gust Speed Precip Events Conditions
12:55 AM 57.0 °F 50.0 °F 77% 30.05 in 10.0 mi NNE 4.6 mph - N/A   Clear
1:55 AM 55.9 °F 50.0 °F 80% 30.05 in 10.0 mi NNE 5.8 mph - N/A   Clear
2:55 AM 53.1 °F 50.0 °F 89% 30.06 in 10.0 mi NE 4.6 mph - N/A   Clear
3:55 AM 52.0 °F 50.0 °F 93% 30.06 in 10.0 mi NNE 3.5 mph - N/A   Clear
4:55 AM 50.0 °F 48.9 °F 96% 30.07 in 10.0 mi Calm Calm - N/A   Clear
5:13 AM 48.2 °F 48.2 °F 100% 30.08 in 2.5 mi Calm Calm - N/A   Clear
5:21 AM 48.2 °F 48.2 °F 100% 30.08 in 5.0 mi Calm Calm - N/A   Clear
5:26 AM 48.2 °F 48.2 °F 100% 30.08 in 1.8 mi Calm Calm - N/A   Clear
5:39 AM 48.2 °F 48.2 °F 100% 30.08 in 0.5 mi Calm Calm - N/A Fog Fog
5:45 AM 48.2 °F 46.4 °F 93% 30.08 in 1.0 mi Calm Calm - N/A   Clear
5:55 AM 46.9 °F 46.9 °F 100% 30.09 in 2.0 mi Calm Calm - N/A   Clear
6:02 AM 48.2 °F 46.4 °F 93% 30.09 in 1.8 mi Calm Calm - N/A   Clear
6:08 AM 48.2 °F 46.4 °F 93% 30.09 in 3.0 mi North 3.5 mph - N/A   Clear
6:33 AM 48.2 °F 46.4 °F 93% 30.10 in 0.8 mi Calm Calm - N/A   Clear
6:40 AM 46.4 °F 46.4 °F 100% 30.10 in 0.2 mi Calm Calm - N/A Fog Fog
6:49 AM 46.4 °F 46.4 °F 100% 30.10 in 2.0 mi Calm Calm - N/A   Clear
6:55 AM 46.9 °F 46.9 °F 100% 30.11 in 1.8 mi Calm Calm - N/A   Clear
7:08 AM 48.2 °F 48.2 °F 100% 30.12 in 3.0 mi Calm Calm - N/A   Clear
7:55 AM 57.0 °F 54.0 °F 89% 30.13 in 10.0 mi NNE 3.5 mph - N/A   Clear
8:55 AM 63.0 °F 55.9 °F 78% 30.13 in 10.0 mi East 3.5 mph - N/A   Clear
9:55 AM 69.1 °F 55.9 °F 63% 30.13 in 10.0 mi Calm Calm - N/A   Clear
10:55 AM 72.0 °F 54.0 °F 53% 30.14 in 10.0 mi Calm Calm - N/A   Clear
11:55 AM 75.9 °F 51.1 °F 42% 30.13 in 10.0 mi WNW 3.5 mph - N/A   Clear
12:55 PM 80.1 °F 48.9 °F 34% 30.10 in 10.0 mi Variable 5.8 mph - N/A   Clear
1:55 PM 82.0 °F 46.9 °F 29% 30.09 in 10.0 mi NW 8.1 mph - N/A   Clear
2:55 PM 84.9 °F 48.0 °F 28% 30.06 in 10.0 mi North 6.9 mph - N/A   Clear
3:55 PM 86.0 °F 46.0 °F 25% 30.05 in 10.0 mi NNE 8.1 mph - N/A   Clear
4:55 PM 84.9 °F 45.0 °F 25% 30.04 in 10.0 mi Variable 3.5 mph - N/A   Clear
5:55 PM 84.0 °F 46.0 °F 26% 30.04 in 10.0 mi North 5.8 mph - N/A   Clear
6:55 PM 80.1 °F 48.9 °F 34% 30.04 in 10.0 mi NE 3.5 mph - N/A   Clear
7:55 PM 66.9 °F 52.0 °F 59% 30.06 in 10.0 mi Calm Calm - N/A   Clear
8:55 PM 62.1 °F 51.1 °F 67% 30.07 in 10.0 mi NNE 3.5 mph - N/A   Clear
9:55 PM 57.9 °F 51.1 °F 78% 30.07 in 10.0 mi Calm Calm - N/A   Clear
10:55 PM 57.0 °F 51.1 °F 81% 30.07 in 10.0 mi Calm Calm - N/A   Clear
11:55 PM 55.0 °F 50.0 °F 83% 30.08 in 10.0 mi Calm Calm - N/A   Clear